[[{"header":{"parameterUnit":"m.s-1","parameterCategory":1,"la1":30.2991,"la2":30.254,"lo1":-89.0895,"lo2":-89.0444,"dy":0.0017,"dx":0.0017,"nx":28,"ny":28,"refTime":"2025-03-28T03:00:00:Z","depth":0,"parameterNumber":2,"parameterNumberName":"U-component_of_WINDS"},"data":[0,0,0,0,0,0,0,0,0,0,0,0,0,0,0,0,0,0,0,0,0,0,0,0,0,0,0,0,0,0,0,0,0,0,0,0,0,0,0,0,0,0,0,0,0,0,0,0,0,0,0,0,0,0,0,0,0,0,-6.2756,-6.2757,0,-6.2809,-6.281,-6.281,-6.2706,-6.2703,-6.2699,-6.2696,-6.2746,-6.275,-6.2755,0,0,0,0,0,0,0,0,0,0,0,0,0,-6.2562,-6.2566,-6.2756,-6.2757,-6.2758,-6.2809,-6.281,-6.281,-6.2707,-6.2702,-6.2698,-6.2694,-6.2744,-6.275,-6.2755,0,0,0,0,0,0,0,0,0,0,0,0,0,-6.2634,-6.2568,-6.2756,-6.2712,-6.2709,-6.2809,-6.281,-6.2811,-6.2707,-6.2702,-6.2697,-6.2692,-6.2743,-6.2749,-6.2756,-6.29,0,0,-6.2777,-6.278,0,0,0,0,0,0,0,0,-6.263,-6.2641,-6.2718,-6.2715,-6.2712,-6.2746,-6.2759,-6.284,-6.2709,-6.2708,-6.2696,-6.269,-6.275,-6.2756,-6.2777,-6.2902,-6.2905,-6.2777,-6.2781,-6.2784,-6.2786,0,0,0,0,0,0,0,-6.2625,-6.2638,-6.2777,-6.2719,-6.2715,-6.2689,-6.2693,-6.2774,-6.2757,-6.2708,-6.27,-6.2708,-6.2747,-6.277,-6.2777,-6.2905,-6.2777,-6.2783,-6.2787,-6.279,-6.315,-6.3155,0,0,0,0,0,0,-6.2626,-6.2635,-6.2775,-6.2779,-6.2658,-6.2696,-6.2701,-6.274,-6.2756,-6.2753,-6.2712,-6.2703,-6.2761,-6.2769,-6.2778,-6.2946,-6.2784,-6.2791,-6.2794,-6.3145,-6.3151,-6.3157,0,0,0,0,0,0,-6.2622,-6.264,-6.2773,-6.2705,-6.272,-6.2705,-6.2749,-6.2744,-6.2767,-6.2759,-6.2755,-6.274,-6.2758,-6.2769,-6.287,-6.2946,-6.2794,-6.28,-6.3138,-6.3147,-6.3154,-6.3283,0,0,0,0,0,0,-6.2617,-6.2639,-6.2694,-6.2707,-6.2724,-6.2866,-6.2754,-6.2748,-6.2779,-6.2767,-6.2784,-6.2781,-6.2754,-6.2861,-6.2877,-6.2953,-6.2805,-6.3131,-6.3142,-6.3152,-6.3272,-6.3295,-6.3314,0,0,0,0,0,-6.2611,-6.2728,-6.2698,-6.2715,-6.2793,-6.287,-6.288,-6.2847,-6.2786,-6.284,-6.2836,-6.2781,-6.2937,-6.2872,-6.289,-6.2968,-6.3126,-6.3139,-6.3151,-6.3263,-6.329,-6.3314,0,0,0,0,0,0,-6.2723,-6.2729,-6.2695,-6.282,-6.2846,-6.2853,-6.292,-6.2878,-6.2921,-6.2908,-6.2865,-6.2869,-6.2979,-6.2984,-6.2913,-6.3108,-6.3021,-6.3037,-6.3099,-6.3126,-6.3147,-6.3141,-6.2811,0,0,0,0,0,-6.2762,-6.2826,-6.2828,-6.2938,-6.2952,-6.2935,-6.2967,-6.2941,-6.2965,-6.2974,-6.2977,-6.3001,-6.3055,-6.3092,-6.3141,-6.3274,-6.3274,-6.3337,-6.3358,-6.3376,-6.3389,-6.3457,-6.3484,-6.3198,-6.3198,-6.3198,0,0,-6.2844,-6.2855,-6.2897,-6.296,-6.2977,-6.3042,-6.2944,-6.3018,-6.3065,-6.2985,-6.308,-6.3084,-6.3108,-6.3226,-6.3278,-6.3233,-6.3469,-6.3391,-6.3405,-6.3409,-6.3473,-6.35,-6.3524,-6.3207,-6.3205,-6.3204,0,0,-6.3024,-6.3041,-6.3133,-6.3153,-6.318,-6.3168,-6.3191,-6.3205,-6.3204,-6.33,-6.3241,-6.3297,-6.3392,-6.3411,-6.3433,-6.3624,-6.3574,-6.3642,-6.375,-6.3817,-6.384,-6.3859,-6.3924,-6.3948,-6.3656,-6.3656,-6.3657,0,-6.3121,-6.3219,-6.3186,-6.3264,-6.3292,-6.3226,-6.3318,-6.3338,-6.338,-6.34,-6.3351,-6.3468,-6.348,-6.36,-6.3647,-6.3669,-6.3691,-6.3637,-6.384,-6.3859,-6.3877,-6.3938,-6.3963,-6.3664,-6.3663,-6.3662,-6.3662,0,-6.3335,-6.3404,-6.3475,-6.3518,-6.3555,-6.364,-6.3619,-6.366,-6.3632,-6.3625,-6.3722,-6.3735,-6.3785,-6.3813,-6.3785,-6.3929,-6.39,-6.3847,-6.3757,-6.3912,-6.3969,-6.3992,-6.3675,-6.3672,-6.367,-6.3668,0,0,-6.3583,-6.3609,-6.3636,-6.3654,-6.368,-6.3732,-6.3814,-6.3864,-6.3899,-6.3932,-6.3997,-6.408,-6.4031,-6.4056,-6.403,-6.409,-6.4237,-6.4029,-6.4028,-6.4063,-6.4392,-6.4429,-6.4457,-6.4206,-6.4211,-6.4214,-6.4389,0,-6.3759,-6.39,-6.3875,-6.4011,-6.4073,-6.4012,-6.4083,-6.4106,-6.4103,-6.4154,-6.4149,-6.4207,-6.414,-6.4154,-6.4211,-6.4207,-6.4301,-6.4195,-6.4263,-6.4266,-6.4254,-6.4487,-6.4526,-6.469,-6.4411,-6.4415,-6.4418,0,-6.3983,-6.4024,-6.4168,-6.4184,-6.4209,-6.4273,-6.4317,-6.4368,-6.4393,-6.4386,-6.4416,-6.4379,-6.4459,-6.4373,-6.4481,-6.4408,-6.4436,-6.4439,-6.4444,-6.4445,-6.4348,-6.449,-6.4742,-6.4765,-6.4453,-6.445,-6.4448,0,-6.4144,-6.4237,-6.4334,-6.4352,-6.4375,-6.4421,-6.4432,-6.4453,-6.4485,-6.4524,-6.4543,-6.4591,-6.4616,-6.4654,-6.463,-6.457,-6.4741,-6.4654,-6.4735,-6.4735,-6.4769,-6.4766,-6.5024,-6.4795,-6.4795,-6.4794,-6.4794,0,-6.4341,-6.443,-6.4407,-6.4466,-6.4564,-6.4534,-6.4631,-6.4635,-6.4654,-6.4712,-6.4664,-6.4719,-6.4687,-6.4739,-6.4722,-6.4812,-6.4825,-6.482,-6.4813,-6.4821,-6.4821,-6.4835,-6.4821,-6.4801,-6.4799,-6.4798,-6.4797,0,-6.4536,-6.4524,-6.4625,-6.464,-6.4646,-6.4717,-6.4728,-6.4782,-6.4777,-6.4851,-6.4866,-6.4856,-6.4916,-6.4898,-6.4962,-6.495,-6.5063,-6.5044,-6.5054,-6.5048,-6.5129,-6.512,-6.54,-6.5434,-6.5188,-6.519,-6.5192,0,-6.4659,-6.4726,-6.4749,-6.4785,-6.48,-6.4859,-6.4892,-6.4866,-6.4902,-6.4937,-6.4987,-6.5043,-6.5085,-6.5182,-6.5179,-6.5228,-6.5207,-6.5302,-6.5213,-6.5219,-6.5203,-6.5197,-6.5202,-6.5318,-6.5321,-6.5323,-6.5325,0,-6.4879,-6.487,-6.492,-6.4969,-6.501,-6.5047,-6.5079,-6.5111,-6.5088,-6.5131,-6.5191,-6.5225,-6.5291,-6.5345,-6.5389,-6.5399,-6.5357,-6.5354,-6.5375,-6.5381,-6.5382,-6.5379,-6.5098,-6.5346,-6.5344,-6.5343,-6.5341,-6.5341,-6.5038,-6.5095,-6.5119,-6.5177,-6.5199,-6.5231,-6.5282,-6.5284,-6.5335,-6.5387,-6.5369,-6.5438,-6.5461,-6.5517,-6.5533,-6.5586,-6.5549,-6.558,-6.5586,-6.5593,-6.5601,-6.5379,-6.5594,-6.5594,-6.5593,-6.5593,-6.5592,0,-6.5252,-6.5265,-6.5319,-6.5366,-6.5411,-6.5372,-6.5406,-6.5445,-6.5507,-6.5534,-6.5577,-6.5647,-6.57,-6.5703,-6.5753,-6.5794,-6.5776,-6.5807,-6.5801,-6.5804,-6.5634,-6.5609,-6.5821,-6.5821,-6.5821,-6.5821,-6.5821,-6.5821,-6.5367,-6.546,-6.5455,-6.5558,-6.557,-6.5638,-6.5661,-6.5689,-6.571,-6.579,-6.5835,-6.5838,-6.5854,-6.5905,-6.5951,-6.5951,-6.5969,-6.6007,-6.5999,-6.5839,-6.5816,-6.5794,-6.577,-6.6013,-6.6013,-6.6164,-6.6165,-6.6166]},{"header":{"parameterUnit":"m.s-1","parameterCategory":1,"la1":30.2991,"la2":30.254,"lo1":-89.0895,"lo2":-89.0444,"dy":0.0017,"dx":0.0017,"nx":28,"ny":28,"refTime":"2025-03-28T03:00:00:Z","depth":0,"parameterNumber":3,"parameterNumberName":"V-component_of_WINDS"},"data":[0,0,0,0,0,0,0,0,0,0,0,0,0,0,0,0,0,0,0,0,0,0,0,0,0,0,0,0,0,0,0,0,0,0,0,0,0,0,0,0,0,0,0,0,0,0,0,0,0,0,0,0,0,0,0,0,0,0,2.06,2.06,0,2.0634,2.0635,2.0635,2.0615,2.0614,2.0613,2.0613,2.0645,2.0647,2.0649,0,0,0,0,0,0,0,0,0,0,0,0,0,2.0517,2.0519,2.06,2.06,2.0601,2.0634,2.0635,2.0635,2.0615,2.0614,2.0613,2.0612,2.0645,2.0647,2.0649,0,0,0,0,0,0,0,0,0,0,0,0,0,2.0552,2.0519,2.06,2.0595,2.0595,2.0634,2.0635,2.0635,2.0616,2.0614,2.0613,2.0612,2.0644,2.0646,2.0649,2.0694,0,0,2.0657,2.0658,0,0,0,0,0,0,0,0,2.055,2.0555,2.0595,2.0595,2.0595,2.0619,2.0617,2.0655,2.0616,2.0608,2.0612,2.0611,2.0637,2.0641,2.065,2.0695,2.0697,2.0657,2.0659,2.066,2.0661,0,0,0,0,0,0,0,2.0548,2.0554,2.0613,2.0596,2.0596,2.0591,2.0595,2.0624,2.063,2.0608,2.0607,2.0612,2.0637,2.0648,2.0651,2.0697,2.0657,2.066,2.0661,2.0662,2.0784,2.0785,0,0,0,0,0,0,2.0546,2.0552,2.0612,2.0614,2.0569,2.0594,2.0598,2.0613,2.063,2.0631,2.0613,2.061,2.0644,2.0648,2.0652,2.0707,2.066,2.0663,2.0664,2.0782,2.0784,2.0786,0,0,0,0,0,0,2.0544,2.0552,2.0611,2.0583,2.059,2.0597,2.0614,2.0614,2.0625,2.0633,2.0634,2.0622,2.0643,2.0648,2.0684,2.0707,2.0664,2.0666,2.078,2.0783,2.0785,2.0816,0,0,0,0,0,0,2.0542,2.0551,2.0568,2.0583,2.0592,2.0643,2.0615,2.0616,2.0629,2.0627,2.0642,2.0643,2.0642,2.068,2.0687,2.071,2.0668,2.0778,2.0781,2.0784,2.0813,2.0819,2.0825,0,0,0,0,0,2.0539,2.0574,2.0569,2.0576,2.0613,2.0644,2.0649,2.0647,2.0631,2.0649,2.0655,2.0643,2.0704,2.0684,2.0691,2.0716,2.0776,2.078,2.0784,2.081,2.0818,2.0825,0,0,0,0,0,0,2.056,2.0576,2.057,2.0612,2.0627,2.0641,2.0662,2.0655,2.0675,2.0671,2.0668,2.0672,2.071,2.0716,2.0694,2.0761,2.0738,2.0743,2.0756,2.0763,2.0769,2.0766,2.067,0,0,0,0,0,2.057,2.0594,2.0607,2.0642,2.065,2.0655,2.0669,2.0667,2.0682,2.0688,2.0696,2.0711,2.0734,2.0749,2.077,2.0814,2.0818,2.0835,2.0841,2.0846,2.085,2.0876,2.0884,2.0798,2.0798,2.0798,0,0,2.0589,2.0601,2.0617,2.0647,2.0658,2.0684,2.0661,2.0688,2.0707,2.0692,2.0727,2.0734,2.0751,2.0792,2.081,2.0798,2.0875,2.085,2.0854,2.0856,2.088,2.0888,2.0896,2.08,2.08,2.08,0,0,2.0638,2.065,2.0681,2.0694,2.0713,2.0716,2.0724,2.074,2.0744,2.078,2.077,2.0792,2.0831,2.0844,2.0856,2.0913,2.0903,2.092,2.095,2.0975,2.0982,2.0988,2.101,2.1017,2.0924,2.0925,2.0925,0,2.066,2.0699,2.0698,2.0727,2.0741,2.0731,2.0763,2.0775,2.0799,2.0809,2.0796,2.0847,2.0857,2.0902,2.0916,2.0925,2.0935,2.0918,2.0981,2.0987,2.0993,2.1013,2.1021,2.0927,2.0926,2.0926,2.0926,0,2.0725,2.0752,2.0776,2.0801,2.0818,2.0848,2.0853,2.087,2.0867,2.0872,2.091,2.0922,2.0947,2.0957,2.0954,2.1002,2.0995,2.0982,2.0958,2.1003,2.1022,2.103,2.0929,2.0929,2.0928,2.0928,0,0,2.0786,2.0813,2.0822,2.0834,2.0855,2.0876,2.0907,2.0933,2.0948,2.0966,2.0992,2.1026,2.1015,2.1029,2.1027,2.1049,2.1095,2.1033,2.1034,2.1045,2.1151,2.1161,2.1169,2.1089,2.1091,2.1092,2.115,0,2.0837,2.0892,2.0894,2.0943,2.0969,2.0961,2.0988,2.1004,2.101,2.1033,2.104,2.1065,2.1048,2.1056,2.1078,2.1085,2.1116,2.1081,2.1114,2.1115,2.111,2.1179,2.1189,2.1243,2.1157,2.1158,2.1159,0,2.0903,2.0925,2.0978,2.0998,2.1009,2.1033,2.1058,2.108,2.1098,2.1102,2.1118,2.1114,2.1146,2.1122,2.1166,2.1142,2.1156,2.1162,2.1164,2.1167,2.1139,2.1184,2.126,2.1268,2.1171,2.117,2.1169,0,2.0943,2.0986,2.1024,2.1035,2.1059,2.1076,2.1087,2.1104,2.112,2.1142,2.1152,2.1177,2.119,2.121,2.1212,2.1194,2.1258,2.1233,2.1261,2.1261,2.1274,2.1273,2.1353,2.1283,2.1283,2.1283,2.1283,0,2.1,2.1033,2.1043,2.1066,2.1103,2.1106,2.1142,2.1151,2.1168,2.1193,2.1187,2.121,2.1213,2.1237,2.124,2.1277,2.1283,2.1286,2.1287,2.1287,2.1287,2.1296,2.1292,2.1285,2.1285,2.1284,2.1284,0,2.1051,2.1059,2.11,2.112,2.1126,2.1153,2.117,2.1192,2.1199,2.1231,2.1239,2.1249,2.1278,2.1283,2.1316,2.1318,2.1363,2.1359,2.1357,2.1356,2.1385,2.1382,2.1473,2.1486,2.1407,2.1408,2.1408,0,2.1086,2.1112,2.1136,2.1153,2.1165,2.1192,2.121,2.1213,2.1231,2.1256,2.1276,2.1305,2.1327,2.1374,2.1384,2.141,2.1407,2.1438,2.1411,2.1411,2.1409,2.1407,2.141,2.1442,2.1443,2.1444,2.1444,0,2.1149,2.1153,2.1178,2.1206,2.1227,2.1248,2.1268,2.1283,2.1289,2.131,2.134,2.1358,2.1394,2.1423,2.1449,2.146,2.1454,2.1453,2.1461,2.1462,2.146,2.1462,2.1371,2.1451,2.145,2.145,2.1449,2.1449,2.1194,2.1217,2.1238,2.1267,2.1284,2.1304,2.1327,2.1337,2.1363,2.1393,2.1394,2.1427,2.1447,2.1483,2.1495,2.1521,2.1512,2.1523,2.1526,2.1529,2.1532,2.1456,2.1526,2.1526,2.1526,2.1526,2.1526,0,2.1257,2.1271,2.1298,2.1328,2.1351,2.1345,2.1368,2.1388,2.1418,2.1437,2.1461,2.1497,2.1525,2.1539,2.1567,2.1586,2.1584,2.1593,2.1592,2.1594,2.1538,2.1529,2.1594,2.1594,2.1594,2.1594,2.1594,2.1594,2.1293,2.1332,2.1339,2.1387,2.14,2.1434,2.1448,2.1467,2.1483,2.1524,2.1548,2.1557,2.1575,2.1605,2.1631,2.1634,2.1645,2.1656,2.1658,2.1605,2.1598,2.1591,2.1583,2.1658,2.1658,2.1712,2.1712,2.1713]}]]